Погода в Отрадинском

Россия / Орловская область     53°09′28″N   36°21′27″E
темп.,
°C
ветер,
м/с
пор.,
м/с
влажн.,
%
обл.,
%
осадки,
мм/ч
давл.,
гПа
погр.,
м
6 марта, сб
сб600:00−9зсз228999 0.0 101621
03:00−9зюз229367 0.0 101721
06:00−11зсз349529 0.0 101769
09:00−9ссз599148 0.0 1019272
12:00−6сз478417 0.0 1019560
15:00−5сз357517 0.0 10191069
18:00−7з348483 0.2 101979
21:00−10з498658 0.2 1019134
7 марта, вс
вс700:00−11зюз48890 0.0 1018132
03:00−11юз613880 0.0 1016276
06:00−9юз8168665 0.0 1012521
09:00−6юз10188383 0.0 1008778
12:00−3зюз121990100 0.1 10031211
15:00−1зюз121993100 0.9 10001343
18:00−1з91596100 1.1 1000933
21:00−7зюз5138668 2.6 1002287
8 марта, пн
пн800:00−8юз6148563 0.0 1002288
03:00−6зюз8188031 0.0 1000684
06:00−9з7157586 0.1 1001645
09:00−10з7138754 0.1 1004617
12:00−6зсз698077 0.1 1006924
15:00−5зсз6107648 0.1 10081353
18:00−7зсз4989100 0.1 1009297
21:00−10зсз4694100 0.1 101294
9 марта, вт
вт900:00−11зсз349685 0.0 101353
03:00−13сз339782 0.1 101427
06:00−13ссз239699 0.1 101550
09:00−12ссз249599 0.1 1017155
12:00−10ссз3590100 0.1 1018539
15:00−9ссз3584100 0.1 1019825
18:00−12ссз348996 0.1 102056
21:00−15ссз348948 0.1 102241
10 марта, ср
ср1000:00−17сз23890 0.0 102420
03:00−18з12935 0.0 102420
06:00−16ююз359594 0.0 102499
09:00−13ююз479597 0.8 1023322
12:00−8зюз3593100 0.7 1022516
15:00−5вюв1295100 1.8 1022217
18:00−10всв5994100 1.3 1022402
21:00−14всв5894100 1.6 1025261